Weather History for KTRL - April, 2013

Change the Weather History Date:

Saturday, April 13, 2013

  Actual Average (KDFW) Record (KDFW)
Temperature  
Mean Temperature 62 °F 65 °F  
Max Temperature 78 °F 76 °F 93 °F (1972)
Min Temperature 48 °F 54 °F 30 °F (1957)
Degree Days  
Heating Degree Days 4 3  
Month to date heating degree days 53  
Since 1 July heating degree days 2246  
Cooling Degree Days 0 3  
Month to date cooling degree days 31  
Year to date cooling degree days 70  
Growing Degree Days 12 (Base 50)    
Moisture  
Dew Point 46 °F    
Average Humidity 53    
Maximum Humidity 83    
Minimum Humidity 33    
Precipitation  
Precipitation 0.00 in 0.08 in 2.18 in (1918)
Month to date precipitation 1.14  
Year to date precipitation 9.42  
Snow  
Snow 0.00 in 0.00 in 0.00 in ()
Month to date snowfall 0.0  
Since 1 July snowfall 1.2  
Snow Depth -    
Sea Level Pressure  
Sea Level Pressure 29.91 in    
Wind  
Wind Speed 4 mph (SE)    
Max Wind Speed 12 mph    
Max Gust Speed 21 mph    
Visibility 10 miles    
Events      
T = Trace of Precipitation, MM = Missing Value Source: NWS Daily Summary

Daily Weather History Graph

Daily Weather History Graph

Search for Another Location

Airport or City:

Trip Planner

Search our weather history database for the weather conditions in past years. The results will help you decide how hot, cold, wet, or windy it might be!

Date:

Astronomy

Apr. 13, 2013 Rise Set
Actual Time 6:57 AM CDT 7:53 PM CDT
Civil Twilight 6:32 AM CDT 8:19 PM CDT
Nautical Twilight 6:02 AM CDT 8:49 PM CDT
Astronomical Twilight 5:31 AM CDT 9:19 PM CDT
Moon 8:58 AM CDT (4/13) 11:09 PM CDT (4/13)
Length of Visible Light 13h 46m
Length of Day
12h 56m
Waxing Crescent, 10% of the Moon is Illuminated
Apr 13
Waxing Crescent
Apr 18
First Quarter
Apr 25
Full
May 2
Last Quarter
May 9
New

Hourly Weather History & Observations

Time (CDT) Temp. Dew Point Humidity Pressure Visibility Wind Dir Wind Speed Gust Speed Precip Events Conditions
12:53 AM 55.0 °F 45.0 °F 69% 29.96 in 10.0 mi Calm Calm - N/A   Clear
1:53 AM 55.0 °F 44.1 °F 67% 29.95 in 10.0 mi SE 4.6 mph - N/A   Clear
2:53 AM 55.0 °F 42.1 °F 62% 29.94 in 10.0 mi Calm Calm - N/A   Clear
3:53 AM 54.0 °F 43.0 °F 66% 29.94 in 10.0 mi SSE 5.8 mph - N/A   Clear
4:53 AM 54.0 °F 43.0 °F 66% 29.94 in 10.0 mi Calm Calm - N/A   Clear
5:53 AM 53.1 °F 43.0 °F 69% 29.95 in 10.0 mi Calm Calm - N/A   Clear
6:53 AM 48.9 °F 44.1 °F 83% 29.96 in 10.0 mi Calm Calm - N/A   Clear
7:53 AM 52.0 °F 46.0 °F 80% 29.99 in 10.0 mi Calm Calm - N/A   Clear
8:53 AM 60.1 °F 48.0 °F 64% 30.02 in 10.0 mi ESE 3.5 mph - N/A   Clear
9:53 AM 64.9 °F 48.9 °F 56% 30.02 in 10.0 mi ESE 4.6 mph - N/A   Clear
10:53 AM 68.0 °F 46.9 °F 47% 30.00 in 10.0 mi SSE 8.1 mph - N/A   Clear
11:53 AM 71.1 °F 48.9 °F 45% 29.98 in 10.0 mi South 9.2 mph 17.3 mph N/A   Clear
12:53 PM 73.0 °F 48.9 °F 42% 29.94 in 10.0 mi SSE 10.4 mph 17.3 mph N/A   Clear
1:53 PM 73.9 °F 48.0 °F 40% 29.91 in 10.0 mi SE 9.2 mph - N/A   Clear
2:53 PM 75.9 °F 46.9 °F 36% 29.88 in 10.0 mi SSE 9.2 mph 20.7 mph N/A   Clear
3:53 PM 75.9 °F 45.0 °F 33% 29.86 in 10.0 mi SSE 9.2 mph - N/A   Clear
4:53 PM 75.9 °F 46.0 °F 35% 29.83 in 10.0 mi SSE 11.5 mph - N/A   Clear
5:53 PM 75.0 °F 44.1 °F 33% 29.82 in 10.0 mi ESE 9.2 mph - N/A   Scattered Clouds
7:53 PM 71.1 °F 46.9 °F 42% 29.79 in 10.0 mi East 5.8 mph - N/A   Clear
8:53 PM 66.9 °F 45.0 °F 45% 29.81 in 10.0 mi SE 5.8 mph - N/A   Clear
9:53 PM 66.0 °F 44.1 °F 45% 29.82 in 10.0 mi SSE 6.9 mph - N/A   Clear
10:53 PM 63.0 °F 45.0 °F 52% 29.81 in 10.0 mi SSE 6.9 mph - N/A   Clear
11:53 PM 62.1 °F 45.0 °F 53% 29.80 in 10.0 mi South 5.8 mph - N/A   Clear